Vertical_Velocity
-0 0 -0 0 0 -0 -0 0 -0 -1 -0 -0 1 -0 -2 -2 -1 -1 -1 0 -0 2 3 5 4 8 12 1 2 43 -4 -14 -7 16 22 8 2 -6 -1 -19 -3 6 2 0 -2
-1 -1 -1 -1 -0 0 -0 -0 -0 -1 -1 -0 -0 -0 -0 -1 -1 0 -2 -0 0 1 1 -0 5 -2 -13 5 -3 39 -3 -9 4 3 -4 64 -13 -4 7 6 0 0 1 -0 -0
-0 -0 -0 -0 -0 -0 -1 1 -1 -1 -1 -2 -0 -0 0 -1 -2 -2 -1 1 -1 -0 2 2 3 2 -0 8 1 24 3 11 7 0 -4 2 1 -0 -10 7 3 -0 -1 -0 -1
0 -1 1 -0 -1 -0 0 -0 -0 0 -1 -2 -2 -0 0 -1 -1 -0 -3 1 -0 -1 1 -0 2 3 -2 2 0 3 0 11 6 -4 -5 -9 -8 -7 0 3 0 1 -1 -2 -1
-1 -0 -0 -0 -1 -0 0 0 0 -0 -1 -2 -1 -1 -1 1 0 -2 -2 -1 -0 -3 -2 -2 4 -1 -1 -1 1 -2 3 -0 2 15 6 1 10 2 -14 7 -2 1 -3 -2 -1
-1 -0 -1 0 -0 -0 1 -0 -1 0 -1 -1 -1 -1 -1 -1 1 -1 -1 -3 -1 -1 -3 -3 -4 -1 -0 0 -1 0 -2 -6 21 4 9 11 9 13 -5 -1 -7 1 -6 -3 -1
-1 -1 -0 0 0 1 -2 0 -0 -0 -0 -1 -1 -0 -0 -4 -1 -0 -2 -2 -1 -1 -2 0 -0 0 2 -2 -1 2 -4 -2 -4 -4 2 -1 -5 -7 -5 2 -7 2 -4 -1 -1
-1 -1 -1 -1 -1 -0 -1 -0 -1 -1 -2 -0 -1 -1 -0 -1 -0 -1 -1 -2 -2 -1 -1 0 -1 0 2 -2 -1 -5 0 9 2 -5 -2 -4 -6 -7 -1 0 -3 -3 -5 1 1
-1 -0 -0 0 -0 -0 -0 0 -2 -1 -2 -2 -1 -1 -2 -1 -1 0 -2 -1 -2 -1 -1 -1 -1 -1 -1 3 -6 -2 0 4 23 8 -11 1 -0 -2 1 3 -5 2 0 -0 0
-1 -1 -1 -0 -1 -1 -2 -0 -1 -2 -1 -0 -1 -1 -1 1 -1 -2 -1 -2 -1 -3 -1 -1 -1 -1 0 -1 -5 -3 3 5 17 22 6 1 -3 -3 -8 -6 -8 3 1 3 3
-0 -1 -0 0 -1 -2 -2 1 1 1 -1 -1 -2 -1 -1 -1 1 -1 -0 -1 -2 -1 -1 -3 -1 -1 -1 -3 -5 -2 2 -1 3 2 -10 -5 -5 8 -7 -5 -11 13 5 -0 1
0 -1 1 -1 -1 -1 1 1 1 3 -1 1 -1 1 -0 -1 1 -0 -1 -1 -1 -2 -1 -2 -1 -1 0 -4 0 -0 -3 0 2 0 10 8 0 3 4 -8 3 0 -2 -2 -5
-1 -1 0 0 -0 0 -1 -2 -0 -0 -1 -1 1 -0 -1 -1 -1 -1 -0 -1 0 -1 -0 1 -1 -3 -5 -3 -1 -1 -1 -1 1 -0 -2 -4 -2 -0 10 4 -7 5 -5 -7 6
-0 -0 1 0 -1 -3 -1 2 1 -2 -1 2 3 -2 -3 -1 0 1 -3 -1 -0 -1 -2 1 -3 -2 -1 -1 -1 -0 -0 -2 -3 -1 -1 -2 -0 -11 7 2 1 0 -2 10 -4
-0 1 0 1 4 5 7 1 -3 -2 1 2 1 0 -1 1 -3 -1 1 0 -1 -1 -0 -7 1 -0 -0 0 -0 3 -1 -1 -1 -2 -0 2 -4 -6 0 9 -0 4 6 6 -0
0 1 1 0 -2 0 -0 1 -0 -2 -0 3 -2 -1 -3 -1 -3 2 -1 0 -1 -0 2 -2 -0 -1 -2 0 -1 0 -0 -1 1 -1 -5 -4 -9 -4 -3 13 -8 13 3 6 -6
2 1 1 4 4 0 8 -1 0 -3 1 3 -1 -1 -0 -2 -4 -2 -0 -0 -0 -0 -2 0 -0 2 -1 1 -1 -1 -1 -1 -2 -5 -4 7 12 10 -5 5 -2 -5 -3 -5 -25
1 2 3 0 1 1 3 4 5 -3 -1 -0 -1 1 -1 1 -1 -2 0 -1 -3 -0 -2 -1 -5 -10 -4 0 3 1 -2 -3 -4 -3 -3 11 21 9 22 2 5 10 20 4 -5
1 1 2 2 2 0 0 7 -6 -4 -8 -3 -3 -4 0 -4 -3 -4 -4 -1 -1 2 -1 0 -5 1 2 -1 -2 3 0 4 -3 -3 -7 4 9 31 19 -14 1 7 4 -4 -1
1 1 7 4 1 0 6 -3 0 -1 -4 1 -0 2 -3 -7 -3 -2 -4 -4 -1 -4 -5 -0 0 -0 -5 0 -3 1 -2 0 4 -3 -4 -3 14 -8 7 13 10 -14 6 4 -9
0 -2 2 0 0 0 11 6 -6 -6 1 1 -4 -6 -5 -0 0 -3 -5 -1 1 -5 -1 1 -2 12 -3 6 -2 -6 0 1 0 6 -1 -13 12 13 10 -0 7 -12 5 -2 6
2 -6 -1 1 -0 1 11 -1 -3 -5 4 1 1 1 -4 4 -2 4 -5 -0 1 -10 -2 -3 4 3 -1 -4 16 5 0 -10 16 4 4 5 2 11 15 28 -31 -6 -4 -15 -8
-3 2 -0 -1 5 12 3 3 -2 1 -2 4 0 1 -2 4 -2 -2 -5 -1 1 0 -3 -4 -2 -4 3 -1 -0 8 9 13 -5 -0 -5 3 -2 14 18 23 16 -0 -5 -6 -6
1 4 1 7 -5 -1 5 0 -7 7 -4 3 -1 0 -0 1 -2 3 5 -4 -2 -2 -4 -5 -0 2 -4 -1 -2 0 4 11 3 -2 -3 -1 16 25 -0 4 -2 -3 -8 -11 -3
-3 -10 -11 -5 3 10 1 2 -3 -2 6 -4 1 1 1 -1 3 1 -3 -1 -14 -3 -3 -1 5 -1 0 7 5 -0 -4 -5 -1 7 1 2 15 25 0 -12 11 -8 -14 -10 5
-10 -7 8 7 -8 -4 -2 -1 0 2 -4 2 4 1 -0 -2 -6 -5 3 -1 -11 3 -5 -7 -3 -7 -2 -4 -10 -4 -10 -5 2 3 -8 -11 -22 17 17 3 -9 -11 -10 -9 -9
13 9 6 2 3 4 -1 4 4 4 -7 -0 -8 7 -12 -1 1 3 -1 2 3 -1 -3 -2 -3 -2 -0 0 -2 -1 5 4 -3 -2 -3 -2 -0 4 20 51 -18 11 -15 -6 -15
Height
5916 5918 5920 5921 5922 5924 5925 5926 5927 5929 5930 5931 5932 5933 5935 5936 5937 5938 5938 5939 5937 5936 5936 5936 5935 5938 5940 5933 5930 5928 5936 5934 5935 5937 5931 5926 5924 5923 5923 5920 5923 5924 5922 5921 5919
5916 5918 5920 5922 5923 5925 5927 5928 5929 5930 5932 5932 5934 5935 5936 5937 5939 5940 5940 5940 5940 5939 5939 5939 5942 5935 5933 5935 5939 5941 5942 5938 5939 5931 5930 5915 5922 5926 5926 5929 5929 5927 5925 5923 5922
5916 5918 5920 5922 5924 5925 5927 5928 5930 5931 5932 5933 5935 5936 5937 5939 5940 5940 5941 5941 5941 5941 5942 5941 5943 5938 5938 5942 5947 5943 5943 5941 5938 5933 5929 5935 5932 5931 5925 5931 5930 5929 5927 5926 5925
5915 5917 5919 5922 5924 5925 5927 5929 5930 5931 5933 5934 5935 5937 5937 5939 5942 5941 5942 5942 5942 5942 5943 5943 5944 5941 5938 5942 5943 5944 5944 5943 5942 5939 5937 5938 5939 5932 5929 5931 5931 5931 5930 5928 5928
5914 5917 5919 5921 5923 5925 5927 5929 5930 5932 5933 5934 5936 5937 5938 5940 5942 5942 5942 5942 5942 5943 5943 5943 5946 5943 5941 5940 5943 5942 5944 5944 5944 5942 5937 5936 5939 5938 5933 5933 5933 5933 5932 5931 5930
5913 5916 5918 5921 5923 5925 5927 5929 5930 5932 5933 5935 5936 5937 5939 5941 5941 5942 5942 5942 5943 5943 5944 5944 5945 5944 5944 5942 5943 5944 5944 5945 5947 5948 5948 5948 5943 5941 5938 5935 5934 5936 5934 5932 5931
5911 5914 5917 5920 5923 5924 5927 5928 5930 5932 5933 5935 5936 5937 5939 5940 5941 5941 5942 5943 5943 5943 5945 5946 5945 5945 5946 5944 5944 5945 5946 5947 5947 5947 5946 5946 5944 5943 5940 5939 5936 5938 5937 5934 5933
5910 5913 5916 5919 5922 5923 5925 5927 5930 5931 5932 5934 5936 5937 5938 5939 5940 5941 5942 5943 5943 5943 5944 5945 5945 5946 5946 5946 5945 5944 5947 5948 5947 5945 5946 5944 5943 5944 5944 5943 5940 5941 5940 5937 5936
5908 5911 5914 5916 5919 5922 5923 5926 5928 5930 5932 5933 5935 5936 5938 5939 5940 5941 5941 5942 5943 5944 5944 5945 5945 5946 5946 5946 5944 5946 5948 5949 5947 5947 5944 5945 5943 5943 5943 5944 5942 5943 5942 5940 5939
5906 5909 5912 5915 5917 5920 5922 5924 5926 5929 5930 5932 5934 5937 5938 5939 5939 5940 5941 5941 5942 5943 5944 5944 5944 5945 5945 5944 5943 5946 5950 5951 5950 5952 5948 5947 5944 5941 5939 5940 5939 5944 5945 5943 5942
5904 5908 5911 5913 5915 5918 5921 5924 5927 5929 5929 5931 5933 5935 5936 5937 5938 5939 5940 5941 5941 5942 5942 5943 5943 5943 5944 5942 5942 5945 5947 5947 5948 5949 5949 5946 5945 5942 5938 5935 5939 5944 5945 5944 5943
5902 5905 5908 5911 5914 5916 5920 5922 5924 5927 5929 5930 5931 5933 5935 5936 5937 5938 5939 5940 5940 5940 5941 5942 5942 5941 5941 5941 5942 5942 5943 5944 5945 5945 5947 5945 5946 5945 5942 5936 5939 5943 5944 5943 5940
5899 5902 5906 5909 5912 5915 5918 5920 5922 5925 5928 5929 5930 5932 5933 5935 5936 5937 5938 5938 5939 5939 5939 5940 5940 5938 5938 5940 5941 5940 5940 5941 5942 5942 5941 5941 5942 5943 5945 5944 5941 5942 5941 5938 5939
5896 5900 5903 5907 5911 5912 5915 5919 5921 5923 5926 5929 5930 5930 5932 5933 5934 5935 5935 5937 5937 5938 5938 5938 5937 5937 5937 5937 5938 5939 5938 5938 5938 5938 5938 5937 5939 5939 5941 5942 5941 5940 5939 5937 5940
5894 5898 5901 5905 5909 5912 5916 5917 5918 5921 5925 5928 5928 5929 5929 5931 5932 5932 5933 5934 5934 5935 5936 5935 5935 5936 5936 5936 5936 5938 5936 5936 5936 5936 5937 5938 5937 5936 5938 5942 5941 5941 5938 5935 5935
5891 5895 5899 5903 5906 5910 5912 5915 5917 5920 5921 5925 5925 5926 5928 5928 5929 5930 5930 5931 5931 5932 5933 5932 5933 5934 5933 5933 5933 5934 5934 5934 5934 5935 5938 5937 5939 5939 5937 5940 5940 5942 5938 5934 5932
5887 5892 5897 5901 5905 5907 5910 5912 5916 5916 5918 5922 5923 5925 5926 5926 5926 5927 5928 5928 5929 5929 5929 5930 5931 5930 5930 5931 5931 5931 5931 5931 5932 5932 5933 5937 5939 5942 5938 5939 5940 5940 5938 5933 5928
5883 5888 5892 5896 5900 5904 5907 5911 5913 5913 5915 5918 5921 5922 5923 5924 5925 5925 5925 5925 5925 5926 5926 5926 5927 5924 5927 5927 5929 5929 5929 5928 5928 5929 5930 5935 5937 5937 5940 5937 5937 5940 5939 5933 5929
5878 5883 5888 5892 5896 5900 5904 5906 5907 5909 5911 5915 5917 5919 5920 5920 5921 5921 5921 5922 5922 5923 5924 5924 5922 5924 5925 5923 5924 5927 5925 5927 5925 5926 5928 5931 5935 5937 5937 5935 5936 5937 5929 5927 5926
5871 5878 5883 5887 5891 5896 5900 5902 5904 5907 5910 5912 5914 5916 5915 5916 5917 5918 5918 5918 5918 5918 5917 5921 5921 5920 5921 5921 5923 5923 5922 5923 5925 5924 5926 5929 5931 5930 5932 5932 5932 5927 5926 5921 5920
5864 5871 5876 5881 5886 5891 5895 5898 5899 5902 5906 5909 5910 5910 5912 5915 5915 5914 5916 5917 5916 5914 5915 5917 5918 5922 5921 5919 5921 5921 5922 5921 5922 5924 5923 5924 5927 5927 5926 5926 5926 5922 5920 5918 5915
5856 5863 5869 5874 5881 5885 5890 5891 5895 5897 5903 5904 5906 5907 5908 5911 5912 5914 5913 5912 5911 5908 5907 5912 5915 5915 5915 5916 5919 5918 5918 5920 5920 5921 5921 5924 5925 5925 5925 5922 5918 5919 5917 5912 5913
5846 5856 5861 5868 5875 5880 5882 5885 5888 5892 5896 5899 5901 5903 5904 5906 5907 5907 5907 5906 5907 5905 5904 5905 5908 5907 5911 5912 5912 5914 5916 5915 5915 5916 5917 5919 5921 5920 5920 5917 5914 5912 5909 5907 5910
5839 5846 5852 5860 5865 5872 5875 5878 5881 5886 5889 5893 5895 5897 5898 5899 5900 5901 5902 5899 5898 5898 5898 5898 5900 5902 5902 5904 5905 5906 5907 5909 5909 5910 5912 5914 5915 5915 5912 5911 5904 5902 5899 5899 5904
5829 5834 5842 5851 5860 5865 5869 5873 5875 5878 5883 5885 5888 5890 5891 5892 5893 5893 5893 5894 5889 5888 5889 5893 5893 5892 5893 5897 5898 5898 5899 5900 5901 5903 5902 5905 5906 5907 5903 5902 5902 5897 5891 5895 5897
5823 5830 5838 5844 5847 5854 5859 5864 5867 5872 5875 5878 5881 5882 5882 5884 5882 5885 5886 5884 5883 5884 5882 5883 5884 5883 5885 5886 5887 5888 5890 5892 5895 5895 5894 5897 5899 5902 5895 5893 5890 5887 5885 5885 5890
5823 5827 5832 5837 5842 5847 5852 5857 5862 5865 5866 5868 5872 5874 5873 5875 5876 5878 5879 5877 5878 5877 5875 5875 5876 5877 5877 5879 5879 5880 5885 5887 5885 5887 5887 5889 5891 5895 5889 5883 5880 5880 5879 5874 5876